Home > Weather > Garland > Past weeks

Flag for USA Weather for the Past 2 Weeks in Garland, Texas, USA

Now
64 °F

Sunny.


Feels Like: 64 °F
Forecast: 55 / 80 °F
Wind: 7 mph from West

Location: Mesquite Metro Airport

Current Time: May 4, 2016 at 9:30:06 AM

Latest Report: May 4, 2016 at 8:50 AM


Visibility: 10 mi

Pressure: 30.08 "Hg

Humidity: 73%

Dew Point: 55 °F

Location of GarlandLocation

Historic Weather in Garland — Graph

°F

Garland Temperature Yesterday

Maximum temperature yesterday: 72 °F (at 3:50 PM)
Minimum temperature yesterday: 48 °F (at 6:50 AM)
Average temperature yesterday: 58 °F

High & Low Weather Summary for the Past Weeks

 TemperatureHumidityPressure
High84 °F (Apr 27, 3:50 PM)100% (Apr 19, 8:50 AM)30.15 "Hg (Apr 19, 8:50 AM)
Low48 °F (May 3, 6:50 AM)26% (Apr 27, 2:50 PM)29.56 "Hg (Apr 29, 5:50 PM)
Average67 °F77%29.90 "Hg
* Reported Apr 19 7:50 AM — May 4 7:50 AM, Garland, Weather by CustomWeather, © 2016

Note: Actual official high and low records may vary slightly from our data, if they occured in-between our weather recording intervals... More about our weather records

Advertising

Garland Weather History for the Previous 24 Hours

Scroll right to see more
 ConditionsComfort  
Time TempWeatherWind HumidityBarometerVisibility
7:50 AM
Wed, May 4
61 °FSunny.No wind83%30.08 "Hg10 mi
6:50 AM55 °FClear.No wind88%30.06 "Hg10 mi
6:15 AM55 °FClear.3 mph86%30.05 "Hg10 mi
5:55 AM55 °FClear.3 mph84%30.05 "Hg10 mi
5:15 AM56 °FClear.3 mph80%30.05 "Hg10 mi
4:15 AM56 °FClear.3 mph78%30.05 "Hg10 mi
3:55 AM57 °FClear.5 mph76%30.05 "Hg10 mi
2:55 AM58 °FClear.3 mph76%30.06 "Hg10 mi
2:15 AM58 °FPassing clouds.3 mph76%30.06 "Hg10 mi
1:15 AM58 °FClear.No wind82%30.07 "Hg10 mi
12:55 AM61 °FClear.No wind66%30.07 "Hg10 mi
12:15 AM61 °FClear.3 mph69%30.07 "Hg10 mi
11:55 PM
Tue, May 3
61 °FClear.3 mph70%30.06 "Hg10 mi
11:35 PM60 °FClear.3 mph80%30.06 "Hg10 mi
11:15 PM61 °FClear.3 mph72%30.06 "Hg10 mi
10:55 PM62 °FClear.No wind74%30.06 "Hg10 mi
10:15 PM60 °FPassing clouds.No wind79%30.05 "Hg10 mi
9:55 PM61 °FClear.No wind82%30.04 "Hg10 mi
9:35 PM61 °FClear.No wind80%30.05 "Hg10 mi
9:15 PM64 °FClear.No wind52%30.06 "Hg10 mi
8:55 PM63 °FSunny.No wind59%30.06 "Hg10 mi
8:35 PM64 °FSunny.No wind51%30.05 "Hg10 mi
8:15 PM65 °FSunny.No wind56%30.05 "Hg10 mi
7:50 PM66 °FSunny.No wind49%30.04 "Hg10 mi
6:50 PM70 °FSunny.7 mph40%30.03 "Hg10 mi
5:50 PM72 °FSunny.5 mph38%30.02 "Hg10 mi
3:50 PM72 °FSunny.No wind38%30.05 "Hg10 mi
2:50 PM70 °FSunny.8 mph40%30.07 "Hg10 mi
1:50 PM68 °FSunny.7 mph43%30.09 "Hg10 mi
12:50 PM66 °FSunny.8 mph43%30.12 "Hg10 mi
11:50 AM64 °FSunny.6 mph46%30.14 "Hg10 mi
10:50 AM64 °FSunny.5 mph52%30.14 "Hg10 mi
9:50 AM63 °FSunny.8 mph56%30.14 "Hg10 mi
Weather by CustomWeather, © 2016

See weather overviewHow to use our weather pages